Location: McCloud Nature Park
(39.8272°N, 86.6824°W)
Time: 01:00:18
(UTC-05:00)

Amateur Radio Satellites - All Passes

Search period start: 30 August 2015 00:30
Search period end: 31 August 2015 00:30
Location: McCloud Nature Park, 39.8272°N, 86.6824°W

Satellite Date Start Highest point End Downlink Frequencies (MHz)
Time Altitude Azimuth
Cosmos 2504 30 Aug 00:38:57 00:46:46 52° 284° (WNW) 00:55:02 435.465 / 435.565
QB50P2 30 Aug 00:39:24 00:43:24 37° 288° (WNW) 00:47:20 145.880/145.840
DANDE 30 Aug 00:40:29 00:43:35 51° 94° (E) 00:47:38 436.750
NANOSAT C BR1 30 Aug 00:42:15 00:46:13 36° 288° (WNW) 00:50:08 145.865
BUGSAT 1 30 Aug 00:42:58 00:47:10 59° 285° (WNW) 00:51:21 437.445
AUBIESAT-1 30 Aug 00:43:57 00:46:49 19° 299° (WNW) 00:49:28 437.475
M-CUBED/EXP-1 PRIME 30 Aug 00:47:25 00:49:53 15° 300° (WNW) 00:52:07 437.505
AIST 2 30 Aug 00:49:40 00:52:43 19° 45° (NE) 00:55:48 435.215
ITUPSAT 1 30 Aug 00:50:21 00:53:55 22° 67° (ENE) 00:57:35 437.325
TIGRISAT 30 Aug 00:51:09 00:53:32 14° 296° (WNW) 00:55:41 435.000
QB50P1 30 Aug 00:55:14 00:58:52 26° 290° (WNW) 01:02:26 145.935-145.965
Oscar 19 30 Aug 01:07:07 01:10:11 16° 90° (E) 01:13:28 437.125/150
RS-15 30 Aug 01:23:08 01:34:57 70° 53° (NE) 01:47:11 29.354- 29.394
BEESAT 30 Aug 01:23:52 01:28:26 47° 72° (ENE) 01:33:01 436.000
PCSat 30 Aug 01:37:43 01:42:14 29° 109° (ESE) 01:46:54 145.827
TISAT 1 30 Aug 01:38:37 01:41:38 18° 268° (W) 01:44:32 437.305
SWISSCUBE 30 Aug 01:49:15 01:54:02 86° 259° (W) 01:58:49 437.505
BEESAT 3 30 Aug 01:59:17 02:01:08 13° 250° (WSW) 02:02:48 437.485
ITAMSAT 1 30 Aug 02:01:54 02:03:58 13° 88° (E) 02:06:20 435.822/435.867
SO-50 30 Aug 02:03:17 02:08:03 73° 303° (WNW) 02:12:59 436.795
BEESAT 2 30 Aug 02:07:46 02:09:57 14° 250° (WSW) 02:11:57 435.950
ITUPSAT 1 30 Aug 02:27:06 02:31:35 39° 262° (W) 02:36:03 437.325
AIST 2 30 Aug 02:27:32 02:31:30 43° 243° (WSW) 02:35:24 435.215
Oscar 19 30 Aug 02:44:52 02:50:00 58° 287° (WNW) 02:55:05 437.125/150
GONETS M04 30 Aug 02:46:39 02:54:56 54° 91° (E) 03:03:22
STARS 30 Aug 02:56:48 03:00:55 42° 72° (ENE) 03:05:07 437.465
JAS-2 30 Aug 02:58:50 03:04:53 31° 91° (E) 03:10:27 435.910
BEESAT 30 Aug 03:03:20 03:06:34 17° 269° (W) 03:09:37 436.000
Gurwin Techsat 1B 30 Aug 03:08:30 03:13:50 73° 102° (ESE) 03:19:08 435.225
MOZHAYETS 4 30 Aug 03:09:03 03:11:21 14° 65° (ENE) 03:13:50
KKS-1 30 Aug 03:09:42 03:14:09 82° 257° (WSW) 03:18:39 437.445
Cosmos 2499 30 Aug 03:12:50 03:18:13 20° 80° (E) 03:24:15 435.465 / 435.565
PCSat 30 Aug 03:20:28 03:25:32 39° 306° (NW) 03:30:36 145.827
RS-15 30 Aug 03:36:25 03:46:51 35° 253° (WSW) 03:57:08 29.354- 29.394
ITAMSAT 1 30 Aug 03:38:55 03:44:06 73° 286° (WNW) 03:49:16 435.822/435.867
SO-50 30 Aug 03:47:16 03:49:34 13° 324° (NW) 03:51:44 436.795
O/OREOS (USA 219) 30 Aug 03:58:25 03:59:56 12° 50° (NE) 04:01:40 437.305
HORYU 2 30 Aug 04:13:10 04:17:07 31° 96° (E) 04:21:06 437.375
AO-7 30 Aug 04:20:20 04:28:15 48° 100° (E) 04:36:12 29.400- 29.500
VERMONT LUNAR 30 Aug 04:25:11 04:27:51 30° 156° (SSE) 04:30:32 437.305
STARS 30 Aug 04:34:38 04:37:36 17° 268° (W) 04:40:25 437.465
JAS-2 30 Aug 04:43:27 04:50:12 45° 292° (WNW) 04:56:08 435.910
MOZHAYETS 4 30 Aug 04:43:33 04:48:07 60° 260° (W) 04:52:41
GONETS M04 30 Aug 04:44:36 04:52:15 32° 291° (WNW) 04:59:44
Gurwin Techsat 1B 30 Aug 04:50:15 04:53:16 15° 298° (WNW) 04:56:02 435.225
CUBESAT XI-V 30 Aug 04:56:35 04:59:19 16° 66° (ENE) 05:02:14 437.345
Cosmos 2499 30 Aug 05:02:00 05:10:23 83° 278° (W) 05:19:17 435.465 / 435.565
O/OREOS (USA 219) 30 Aug 05:35:27 05:40:05 82° 250° (WSW) 05:44:39 437.305
STRAND 1 30 Aug 05:35:42 05:37:56 13° 62° (ENE) 05:40:25 437.568
CUTE-I 30 Aug 05:49:49 05:52:06 13° 88° (E) 05:54:42 437.470
HORYU 2 30 Aug 05:50:02 05:53:37 24° 292° (WNW) 05:57:06 437.375
VERMONT LUNAR 30 Aug 06:01:09 06:04:08 87° 344° (NNW) 06:07:07 437.305
PHONESAT 2.4 30 Aug 06:06:30 06:09:09 21° 151° (SSE) 06:11:51 2401.200-2431.200
AO-7 30 Aug 06:13:25 06:20:56 39° 298° (WNW) 06:28:19 29.400- 29.500
PRISM 30 Aug 06:14:58 06:17:41 18° 67° (ENE) 06:20:30 437.425
CUBESAT XI-V 30 Aug 06:31:56 06:36:24 50° 261° (W) 06:40:52 437.345
Cubesat XI-IV 30 Aug 06:42:04 06:47:07 43° 98° (E) 06:52:11 437.490
Cosmos 2499 30 Aug 06:59:48 07:05:16 17° 301° (WNW) 07:10:23 435.465 / 435.565
STRAND 1 30 Aug 07:11:28 07:16:34 77° 258° (WSW) 07:21:42 437.568
BRITE-PL 30 Aug 07:14:44 07:18:26 19° 90° (E) 07:22:25 437.365/2234.400
CUTE-I 30 Aug 07:27:31 07:32:50 73° 286° (WNW) 07:38:09 437.470
VERMONT LUNAR 30 Aug 07:37:39 07:40:38 86° 5° (N) 07:43:37 437.305
HO-68 30 Aug 07:42:36 07:44:21 11° 85° (E) 07:46:43 435.675
PHONESAT 2.4 30 Aug 07:43:21 07:46:45 74° 166° (SSE) 07:50:09 2401.200-2431.200
PRISM 30 Aug 07:49:05 07:52:52 35° 262° (W) 07:56:39 437.425
GOMX 1 30 Aug 07:53:07 07:57:32 25° 92° (E) 08:02:05 467.674
AIST 1 30 Aug 07:53:42 07:57:24 30° 91° (E) 08:01:10
YUBILEINY 30 Aug 08:10:39 08:19:15 54° 76° (ENE) 08:27:50 435.215
CUTE 1.7 + AOD 2 30 Aug 08:15:12 08:16:56 13° 89° (E) 08:18:54 437.475
DOVE 4 30 Aug 08:16:09 08:20:27 25° 92° (E) 08:24:50 437.250
ISS 30 Aug 08:17:01 08:17:38 10° 129° (SE) 08:18:24 145.825
Cubesat XI-IV 30 Aug 08:22:45 08:27:00 24° 294° (WNW) 08:31:07 437.490
CANX-2 30 Aug 08:27:48 08:30:53 20° 93° (E) 08:34:04 2200.000
BRITE-PL 30 Aug 08:51:54 08:57:17 59° 286° (WNW) 09:02:51 437.365/2234.400
SEEDS 30 Aug 08:52:19 08:55:51 27° 95° (E) 08:59:26 437.485
Cosmos 2491 30 Aug 08:56:18 09:04:36 54° 91° (E) 09:13:01 435.465 / 435.565
SO-50 30 Aug 08:56:36 08:59:11 14° 37° (NE) 09:01:54 436.795
VERMONT LUNAR 30 Aug 09:14:14 09:16:55 30° 204° (SSW) 09:19:36 437.305
CINEMA 3 30 Aug 09:15:08 09:19:51 40° 96° (E) 09:24:29 145.822/145.860
COMPASS 1 30 Aug 09:17:05 09:21:00 39° 98° (E) 09:24:54 437.405
CUBEBUG 2 30 Aug 09:18:54 09:22:10 19° 91° (E) 09:25:30 437.445
PHONESAT 2.4 30 Aug 09:21:16 09:24:40 78° 1° (N) 09:28:05 2401.200-2431.200
CUSAT 1 30 Aug 09:23:20 09:26:13 13° 59° (ENE) 09:29:47 437.405
HO-68 30 Aug 09:26:12 09:33:26 75° 104° (ESE) 09:40:38 435.675
ZACube-1 30 Aug 09:28:04 09:30:01 13° 88° (E) 09:32:10 437.345
AAUSAT CUBESAT 2 30 Aug 09:28:54 09:32:52 46° 98° (E) 09:36:51 437.432
UWE-3 30 Aug 09:29:49 09:32:59 19° 91° (E) 09:36:15 435.000/436.395/437.385
GOMX 1 30 Aug 09:30:40 09:35:46 42° 288° (WNW) 09:40:53 467.674
AIST 1 30 Aug 09:31:57 09:35:09 20° 288° (WNW) 09:38:14
FUNcube-1 30 Aug 09:33:57 09:36:21 15° 89° (E) 09:38:55 145.935
DANDE 30 Aug 09:38:40 09:40:10 11° 59° (ENE) 09:42:22 436.750
UNISAT 6 30 Aug 09:41:41 09:45:30 26° 69° (ENE) 09:49:28 437.425
CUTE 1.7 + AOD 2 30 Aug 09:49:07 09:53:13 50° 286° (WNW) 09:57:18 437.475
ISS 30 Aug 09:50:24 09:53:38 76° 323° (NW) 09:56:53 145.825
DOVE 4 30 Aug 09:53:22 09:58:19 40° 289° (WNW) 10:03:12 437.250
AUBIESAT-1 30 Aug 09:54:06 09:58:34 43° 68° (ENE) 10:03:02 437.475
M-CUBED/EXP-1 PRIME 30 Aug 09:57:23 10:02:04 55° 69° (ENE) 10:06:44 437.505
QB50P2 30 Aug 09:57:46 09:59:42 13° 65° (ENE) 10:01:51 145.880/145.840
NANOSAT C BR1 30 Aug 10:00:13 10:02:10 13° 65° (ENE) 10:04:19 145.865
CANX-2 30 Aug 10:03:06 10:06:53 32° 289° (WNW) 10:10:36 2200.000
DELFI C3 30 Aug 10:06:09 10:09:45 32° 96° (E) 10:13:21 145.870
YUBILEINY 30 Aug 10:08:09 10:15:44 32° 275° (W) 10:23:03 435.215
TIGRISAT 30 Aug 10:10:15 10:14:43 49° 73° (ENE) 10:19:17 435.000
QB50P1 30 Aug 10:12:07 10:14:58 18° 67° (ENE) 10:17:58 145.935-145.965
Oscar 11 30 Aug 10:23:09 10:27:30 84° 102° (ESE) 10:31:48 145.826/435.025
PCSat 30 Aug 10:26:00 10:30:11 23° 47° (NE) 10:34:29 145.827
Cosmos 2504 30 Aug 10:26:18 10:34:35 53° 76° (ENE) 10:42:27 435.465 / 435.565
ANTELSAT 30 Aug 10:26:22 10:31:01 76° 76° (ENE) 10:35:46 437.575/2403.000
HUMSAT D 30 Aug 10:26:59 10:30:13 21° 93° (E) 10:33:29 437.325/437.525
SEEDS 30 Aug 10:28:09 10:31:33 24° 290° (WNW) 10:34:52 437.485
UKube-1 30 Aug 10:30:16 10:31:23 11° 89° (E) 10:32:48 .
SO-50 30 Aug 10:35:36 10:40:35 82° 58° (ENE) 10:45:24 436.795
CINEMA 3 30 Aug 10:52:50 10:56:47 23° 293° (WNW) 11:00:33 145.822/145.860
COMPASS 1 30 Aug 10:53:41 10:56:22 16° 293° (WNW) 10:58:54 437.405
Cosmos 2491 30 Aug 10:54:13 11:01:55 33° 291° (WNW) 11:09:26 435.465 / 435.565
CUBEBUG 2 30 Aug 10:54:38 10:59:05 41° 288° (WNW) 11:03:21 437.445
VELOX 1 30 Aug 10:56:56 10:59:41 16° 91° (E) 11:02:37 145.980
50 SAT 30 Aug 10:58:11 11:00:52 18° 93° (E) 11:03:39 437.505
PHONESAT 2.4 30 Aug 10:59:12 11:02:31 51° 200° (SSW) 11:05:50 2401.200-2431.200
ZACube-1 30 Aug 11:02:22 11:06:49 56° 286° (WNW) 11:11:08 437.345
CUSAT 1 30 Aug 11:02:37 11:10:14 63° 77° (ENE) 11:18:25 437.405
UWE-3 30 Aug 11:05:23 11:09:43 40° 288° (WNW) 11:13:54 435.000/436.395/437.385
AAUSAT CUBESAT 2 30 Aug 11:05:47 11:08:07 14° 293° (WNW) 11:10:17 437.432
FUNcube-1 30 Aug 11:08:39 11:13:01 49° 287° (WNW) 11:17:16 145.935
POLYITAN 1 30 Aug 11:11:02 11:15:17 85° 77° (ENE) 11:19:37 437.675
POPSAT HIP 1 30 Aug 11:14:22 11:18:37 90° 285° (WNW) 11:22:55 437.405
HO-68 30 Aug 11:15:13 11:20:31 22° 301° (WNW) 11:25:34 435.675
DUCHIFAT 1 30 Aug 11:16:27 11:20:40 88° 257° (WSW) 11:24:57 145.980
DANDE 30 Aug 11:17:26 11:24:44 58° 77° (ENE) 11:33:05 436.750
UNISAT 6 30 Aug 11:18:00 11:22:10 31° 265° (W) 11:26:20 437.425
ISS 30 Aug 11:28:20 11:30:29 16° 342° (NNW) 11:32:36 145.825
AUBIESAT-1 30 Aug 11:29:49 11:33:25 21° 263° (W) 11:36:52 437.475
QB50P2 30 Aug 11:31:00 11:35:10 55° 260° (W) 11:39:22 145.880/145.840
BUGSAT 1 30 Aug 11:31:55 11:35:58 86° 77° (ENE) 11:40:06 437.445
NANOSAT C BR1 30 Aug 11:33:26 11:37:34 54° 260° (W) 11:41:45 145.865
M-CUBED/EXP-1 PRIME 30 Aug 11:34:00 11:37:07 17° 265° (W) 11:40:03 437.505
DELFI C3 30 Aug 11:41:47 11:44:36 18° 292° (WNW) 11:47:17 145.870
ESTCUBE 1 30 Aug 11:43:47 11:48:01 40° 98° (E) 11:52:16 437.505/2401.250
QB50P1 30 Aug 11:46:37 11:50:34 37° 263° (W) 11:54:33 145.935-145.965
DX 1 30 Aug 11:48:15 11:52:40 83° 285° (WNW) 11:57:03 434.975-435.025
TIGRISAT 30 Aug 11:48:47 11:51:47 16° 270° (W) 11:54:37 435.000
HUMSAT D 30 Aug 12:02:15 12:05:59 30° 289° (WNW) 12:09:37 437.325/437.525
AISAT 30 Aug 12:03:17 12:07:48 87° 286° (WNW) 12:12:17 437.250
UKube-1 30 Aug 12:03:41 12:07:59 61° 286° (WNW) 12:12:16 .
ANTELSAT 30 Aug 12:07:42 12:08:26 10° 273° (W) 12:08:50 437.575/2403.000
PCSat 30 Aug 12:08:42 12:14:01 56° 246° (WSW) 12:19:17 145.827
CUBEBUG 1 30 Aug 12:09:14 12:13:39 64° 102° (ESE) 12:18:02 437.445
SPROUT 30 Aug 12:12:15 12:15:28 21° 93° (E) 12:18:47 437.525
SO-50 30 Aug 12:18:55 12:20:29 11° 252° (WSW) 12:21:45 436.795
Cosmos 2504 30 Aug 12:19:09 12:26:25 32° 275° (W) 12:33:09 435.465 / 435.565
Oscar 19 30 Aug 12:23:03 12:26:58 23° 66° (ENE) 12:31:01 437.125/150
50 SAT 30 Aug 12:32:04 12:35:28 28° 289° (WNW) 12:38:46 437.505
VELOX 1 30 Aug 12:32:14 12:36:29 44° 288° (WNW) 12:40:43 145.980
PHONESAT 2.4 30 Aug 12:38:18 12:39:57 13° 213° (SSW) 12:41:31 2401.200-2431.200
CUSAT 1 30 Aug 12:45:57 12:52:28 29° 271° (W) 12:59:03 437.405
Gurwin Techsat 1B 30 Aug 12:52:17 12:54:46 14° 62° (ENE) 12:57:31 435.225
GONETS M04 30 Aug 12:58:12 13:05:04 26° 66° (ENE) 13:12:14
DANDE 30 Aug 13:01:08 13:07:41 31° 270° (W) 13:14:41 436.750
ISS 30 Aug 13:07:15 13:07:55 10° 2° (N) 13:08:36 145.825
JAS-2 30 Aug 13:10:45 13:15:11 17° 57° (ENE) 13:20:02 435.910
ITAMSAT 1 30 Aug 13:18:39 13:22:13 20° 65° (ENE) 13:25:57 435.822/435.867
ESTCUBE 1 30 Aug 13:21:25 13:24:37 19° 293° (WNW) 13:27:42 437.505/2401.250
TISAT 1 30 Aug 13:22:07 13:26:24 72° 102° (ESE) 13:30:38 437.305
BEESAT 30 Aug 13:26:45 13:28:38 13° 89° (E) 13:30:48 436.000
AO-7 30 Aug 13:31:37 13:35:00 14° 48° (NE) 13:38:51 29.400- 29.500
CUBEBUG 1 30 Aug 13:47:37 13:49:31 12° 296° (WNW) 13:51:12 437.445
SPROUT 30 Aug 13:47:42 13:51:37 33° 289° (WNW) 13:55:29 437.525
SWISSCUBE 30 Aug 13:50:51 13:54:44 25° 94° (E) 13:58:42 437.505
Oscar 19 30 Aug 14:01:10 14:06:04 43° 262° (W) 14:11:00 437.125/150
BEESAT 3 30 Aug 14:13:58 14:15:07 11° 109° (ESE) 14:16:29 437.485
BEESAT 2 30 Aug 14:23:57 14:24:47 11° 109° (ESE) 14:25:52 435.950
ITUPSAT 1 30 Aug 14:28:01 14:32:42 55° 100° (E) 14:37:22 437.325
Gurwin Techsat 1B 30 Aug 14:28:51 14:34:09 79° 257° (WSW) 14:39:30 435.225
ISS 30 Aug 14:42:52 14:45:18 19° 22° (NNE) 14:47:46 145.825
JAS-2 30 Aug 14:51:31 14:59:06 79° 75° (ENE) 15:07:02 435.910
GONETS M04 30 Aug 14:54:03 15:02:47 68° 267° (W) 15:11:29
Cosmos 2499 30 Aug 14:55:04 15:02:54 37° 70° (ENE) 15:10:25 435.465 / 435.565
ITAMSAT 1 30 Aug 14:56:21 15:01:23 51° 260° (W) 15:06:26 435.822/435.867
TISAT 1 30 Aug 15:00:38 15:01:37 11° 296° (WNW) 15:02:21 437.305
BEESAT 30 Aug 15:02:17 15:07:00 64° 286° (WNW) 15:11:42 436.000
KKS-1 30 Aug 15:02:19 15:05:37 20° 93° (E) 15:09:02 437.445
HORYU 2 30 Aug 15:10:45 15:14:31 28° 69° (ENE) 15:18:22 437.375
AO-7 30 Aug 15:18:10 15:26:18 61° 67° (ENE) 15:34:30 29.400- 29.500
SWISSCUBE 30 Aug 15:28:23 15:32:38 32° 290° (WNW) 15:36:49 437.505
RS-15 30 Aug 15:46:18 15:56:16 46° 110° (ESE) 16:06:45 29.354- 29.394
BEESAT 3 30 Aug 15:48:33 15:52:34 61° 304° (WNW) 15:56:38 437.485
BEESAT 2 30 Aug 15:58:17 16:02:21 65° 303° (WNW) 16:06:27 435.950
ITUPSAT 1 30 Aug 16:07:13 16:10:11 16° 295° (WNW) 16:12:57 437.325
ISS 30 Aug 16:18:45 16:21:59 71° 220° (SW) 16:25:13 145.825
STARS 30 Aug 16:23:06 16:27:35 88° 285° (WNW) 16:32:01 437.465
AIST 2 30 Aug 16:24:12 16:28:13 45° 117° (ESE) 16:32:19 435.215
KKS-1 30 Aug 16:38:15 16:42:23 36° 289° (WNW) 16:46:27 437.445
JAS-2 30 Aug 16:39:21 16:45:00 21° 273° (W) 16:50:27 435.910
MOZHAYETS 4 30 Aug 16:39:37 16:43:43 33° 96° (E) 16:47:51
HORYU 2 30 Aug 16:47:14 16:51:06 27° 265° (W) 16:54:55 437.375
Cosmos 2499 30 Aug 16:48:05 16:56:18 47° 271° (W) 17:03:54 435.465 / 435.565
GONETS M04 30 Aug 16:55:35 16:58:11 11° 284° (WNW) 17:00:00
CUTE-I 30 Aug 17:10:23 17:14:17 22° 65° (ENE) 17:18:21 437.470
AO-7 30 Aug 17:12:30 17:19:38 29° 266° (W) 17:26:31 29.400- 29.500
RS-15 30 Aug 17:57:52 18:08:34 53° 313° (NW) 18:19:39 29.354- 29.394
Cubesat XI-IV 30 Aug 18:03:17 18:08:34 66° 74° (ENE) 18:13:52 437.490
AIST 2 30 Aug 18:03:50 18:07:02 20° 314° (NW) 18:10:09 435.215
O/OREOS (USA 219) 30 Aug 18:10:32 18:12:19 12° 100° (E) 18:14:21 437.305
MOZHAYETS 4 30 Aug 18:17:10 18:20:48 23° 291° (WNW) 18:24:19
BRITE-PL 30 Aug 18:26:21 18:28:47 15° 64° (ENE) 18:31:29 437.365/2234.400
CUBESAT XI-V 30 Aug 18:29:10 18:33:33 41° 97° (E) 18:37:59 437.345
CUTE-I 30 Aug 18:48:57 18:54:05 48° 261° (W) 18:59:12 437.470
GOMX 1 30 Aug 19:01:22 19:04:41 21° 66° (ENE) 19:08:17 467.674
Cosmos 2491 30 Aug 19:08:01 19:14:46 25° 65° (ENE) 19:21:51 435.465 / 435.565
CANX-2 30 Aug 19:20:56 19:23:13 15° 66° (ENE) 19:25:40 2200.000
DOVE 4 30 Aug 19:21:34 19:24:57 21° 66° (ENE) 19:28:36 437.250
STRAND 1 30 Aug 19:22:56 19:27:39 38° 97° (E) 19:32:24 437.568
PRISM 30 Aug 19:31:46 19:35:23 30° 97° (E) 19:39:02 437.425
AIST 1 30 Aug 19:38:14 19:42:34 90° 16° (NNE) 19:46:56
SEEDS 30 Aug 19:44:11 19:47:04 18° 68° (ENE) 19:50:04 437.485
Cubesat XI-IV 30 Aug 19:46:11 19:49:14 15° 271° (W) 19:52:00 437.490
O/OREOS (USA 219) 30 Aug 19:46:48 19:51:16 59° 294° (WNW) 19:55:48 437.305
HO-68 30 Aug 19:53:40 20:00:30 52° 68° (ENE) 20:07:27 435.675
BRITE-PL 30 Aug 20:02:41 20:06:52 50° 262° (W) 20:11:21 437.365/2234.400
CUBESAT XI-V 30 Aug 20:07:23 20:10:44 20° 293° (WNW) 20:13:58 437.345
COMPASS 1 30 Aug 20:07:42 20:11:09 26° 70° (ENE) 20:14:40 437.405
CINEMA 3 30 Aug 20:16:00 20:20:08 33° 70° (ENE) 20:24:31 145.822/145.860
RS-15 30 Aug 20:16:19 20:24:35 22° 344° (NNW) 20:32:56 29.354- 29.394
CUBEBUG 2 30 Aug 20:16:54 20:19:37 16° 65° (ENE) 20:22:33 437.445
AAUSAT CUBESAT 2 30 Aug 20:18:57 20:22:32 28° 71° (ENE) 20:26:10 437.432
ZACube-1 30 Aug 20:24:40 20:25:37 11° 63° (ENE) 20:26:51 437.345
UWE-3 30 Aug 20:26:45 20:29:23 16° 65° (ENE) 20:32:13 435.000/436.395/437.385
FUNcube-1 30 Aug 20:29:57 20:31:35 12° 64° (ENE) 20:33:27 145.935
GOMX 1 30 Aug 20:38:26 20:42:34 37° 264° (W) 20:46:58 467.674
CUTE 1.7 + AOD 2 30 Aug 20:40:37 20:44:55 81° 258° (WSW) 20:49:13 437.475
DELFI C3 30 Aug 20:53:03 20:55:53 19° 69° (ENE) 20:58:50 145.870
CANX-2 30 Aug 20:54:35 20:58:46 49° 261° (W) 21:02:57 2200.000
DOVE 4 30 Aug 20:58:10 21:02:26 39° 264° (W) 21:06:57 437.250
STRAND 1 30 Aug 21:02:31 21:06:41 25° 293° (WNW) 21:10:45 437.568
Cosmos 2491 30 Aug 21:03:50 21:12:32 69° 266° (W) 21:21:12 435.465 / 435.565
PRISM 30 Aug 21:07:32 21:10:40 21° 292° (WNW) 21:13:42 437.425
YUBILEINY 30 Aug 21:10:07 21:18:42 64° 92° (E) 21:27:23 435.215
Oscar 11 30 Aug 21:16:53 21:21:08 58° 75° (ENE) 21:25:26 145.826/435.025
SEEDS 30 Aug 21:18:39 21:22:37 37° 263° (W) 21:26:34 437.485
HUMSAT D 30 Aug 21:18:41 21:21:09 15° 66° (ENE) 21:23:46 437.325/437.525
HO-68 30 Aug 21:42:25 21:48:34 29° 266° (W) 21:54:35 435.675
50 SAT 30 Aug 21:42:58 21:43:40 11° 65° (ENE) 21:44:36 437.505
COMPASS 1 30 Aug 21:43:13 21:46:46 25° 266° (W) 21:50:14 437.405
CUBEBUG 2 30 Aug 21:51:21 21:55:52 54° 261° (W) 22:00:31 437.445
CINEMA 3 30 Aug 21:53:32 21:57:24 25° 268° (W) 22:01:18 145.822/145.860
VELOX 1 30 Aug 21:54:37 21:56:53 14° 65° (ENE) 21:59:20 145.980
AAUSAT CUBESAT 2 30 Aug 21:54:47 21:58:08 22° 266° (W) 22:01:23 437.432
ZACube-1 30 Aug 21:56:50 22:01:21 80° 258° (WSW) 22:05:59 437.345
UWE-3 30 Aug 22:00:59 22:05:28 54° 261° (W) 22:10:04 435.000/436.395/437.385
FUNcube-1 30 Aug 22:02:50 22:07:21 71° 259° (W) 22:11:57 145.935
TIGRISAT 30 Aug 22:05:45 22:06:32 11° 87° (E) 22:07:37 435.000
ANTELSAT 30 Aug 22:20:30 22:23:23 17° 90° (E) 22:26:23 437.575/2403.000
DELFI C3 30 Aug 22:27:05 22:30:45 32° 264° (W) 22:34:23 145.870
RS-15 30 Aug 22:34:10 22:42:42 23° 19° (NNE) 22:51:44 29.354- 29.394
ESTCUBE 1 30 Aug 22:42:45 22:46:46 34° 71° (ENE) 22:50:51 437.505/2401.250
DX 1 30 Aug 22:42:51 22:47:10 77° 74° (ENE) 22:51:31 434.975-435.025
HUMSAT D 30 Aug 22:52:20 22:56:30 47° 261° (W) 23:00:43 437.325/437.525
Cosmos 2504 30 Aug 22:55:02 23:02:19 41° 87° (E) 23:10:08 435.465 / 435.565
Oscar 11 30 Aug 22:56:01 22:57:46 12° 271° (W) 22:59:14 145.826/435.025
UKube-1 30 Aug 22:57:22 23:01:41 81° 257° (WSW) 23:06:01 .
POLYITAN 1 30 Aug 22:58:32 23:00:56 15° 90° (E) 23:03:32 437.675
AISAT 30 Aug 23:00:01 23:04:24 76° 76° (ENE) 23:08:50 437.250
POPSAT HIP 1 30 Aug 23:01:30 23:04:03 16° 91° (E) 23:06:46 437.405
DUCHIFAT 1 30 Aug 23:03:04 23:05:35 16° 91° (E) 23:08:17 145.980
CUBEBUG 1 30 Aug 23:04:34 23:08:42 47° 73° (ENE) 23:12:53 437.445
Cosmos 2491 30 Aug 23:05:19 23:07:58 11° 284° (WNW) 23:09:52 435.465 / 435.565
SPROUT 30 Aug 23:06:32 23:08:58 15° 66° (ENE) 23:11:35 437.525
YUBILEINY 30 Aug 23:08:53 23:16:15 28° 293° (WNW) 23:23:25 435.215
UNISAT 6 30 Aug 23:10:15 23:14:48 59° 100° (E) 23:19:12 437.425
AUBIESAT-1 30 Aug 23:10:38 23:14:07 30° 100° (E) 23:17:23 437.475
50 SAT 30 Aug 23:13:48 23:17:43 61° 259° (W) 23:21:39 437.505
M-CUBED/EXP-1 PRIME 30 Aug 23:14:36 23:18:25 42° 103° (ESE) 23:21:55 437.505
BUGSAT 1 30 Aug 23:16:18 23:18:22 14° 90° (E) 23:20:38 437.445
QB50P2 30 Aug 23:17:24 23:20:55 25° 94° (E) 23:24:30 145.880/145.840
NANOSAT C BR1 30 Aug 23:19:22 23:22:52 25° 94° (E) 23:26:27 145.865
VELOX 1 30 Aug 23:28:43 23:33:01 53° 260° (W) 23:37:22 145.980
QB50P1 30 Aug 23:32:13 23:36:10 35° 97° (E) 23:40:07 145.935-145.965
TIGRISAT 30 Aug 23:39:19 23:43:54 69° 285° (WNW) 23:48:19 435.000
ANTELSAT 30 Aug 23:56:05 00:00:27 43° 288° (WNW) 00:04:40 437.575/2403.000
BEESAT 3 31 Aug 00:07:34 00:11:34 59° 56° (NE) 00:15:29 437.485
CUSAT 1 31 Aug 00:09:49 00:13:22 53° 94° (E) 00:18:09 437.405
TISAT 1 31 Aug 00:13:17 00:17:18 46° 73° (ENE) 00:21:23 437.305
BEESAT 2 31 Aug 00:17:56 00:21:56 57° 55° (NE) 00:25:53 435.950
ESTCUBE 1 31 Aug 00:20:17 00:23:45 21° 267° (W) 00:27:06 437.505/2401.250
